When you browse on this site, cookies collect data to enhance your experience and personalize the content and advertising you see.
Visit our Privacy Policy to learn more. By continuing to use the site, you agree to this use of cookies and data.
  • In Latvia
  • List of Countries
  • For 7 days
  • Water Temperature
  • Weather Map
  • Weather Widgets
  • user-avatar
    Login

    Hourly Weather Eisenstadt

    Today, 4 June, Thursday

    Time Temperature Precipitation Wind Pressure Humidity
    00:00 +13°C° 0 mm 2 mps 713 mmHg 81%
    01:00 +13°C° 0 mm 2 mps 713 mmHg 81%
    02:00 +12°C° 0 mm 2 mps 712 mmHg 83%
    03:00 +12°C° 0 mm 2 mps 712 mmHg 85%
    04:00 +10°C° 0 mm 2 mps 711 mmHg 87%
    05:00 +13°C° 0 mm 2 mps 711 mmHg 82%
    06:00 +14°C° 0 mm 1 mps 711 mmHg 78%
    07:00 +16°C° 0 mm 1 mps 711 mmHg 74%
    08:00 +18°C° 0 mm 2 mps 711 mmHg 68%
    09:00 +19°C° 0 mm 2 mps 711 mmHg 62%
    10:00 +21°C° 0 mm 3 mps 711 mmHg 56%
    11:00 +22°C° 0 mm 4 mps 711 mmHg 53%
    12:00 +25°C° 0 mm 4 mps 710 mmHg 49%
    13:00 +26°C° 0 mm 5 mps 710 mmHg 45%
    14:00 +24°C° 0 mm 6 mps 709 mmHg 47%
    15:00 +23°C° 0 mm 7 mps 709 mmHg 49%
    16:00 +22°C° 0 mm 9 mps 708 mmHg 51%
    17:00 +21°C° 0 mm 8 mps 708 mmHg 55%
    18:00 +20°C° 0 mm 8 mps 708 mmHg 59%
    19:00 +17°C° 0 mm 8 mps 708 mmHg 62%
    20:00 +16°C° 0 mm 7 mps 708 mmHg 65%
    21:00 +16°C° 0 mm 7 mps 708 mmHg 68%
    22:00 +15°C° 0 mm 6 mps 708 mmHg 71%
    23:00 +15°C° 0.1 mm 5 mps 708 mmHg 75%

    Tomorrow, 5 June, Friday

    Time Temperature Precipitation Wind Pressure Humidity
    00:00 +14°C° 0.1 mm 4 mps 708 mmHg 78%
    01:00 +15°C° 0.1 mm 2 mps 708 mmHg 82%
    02:00 +15°C° 0.4 mm 2 mps 708 mmHg 86%
    03:00 +14°C° 0.4 mm 1 mps 708 mmHg 89%
    04:00 +14°C° 0.4 mm 1 mps 708 mmHg 93%
    05:00 +14°C° 2 mm 1 mps 708 mmHg 94%
    06:00 +14°C° 2 mm 1 mps 708 mmHg 94%
    07:00 +13°C° 2 mm 1 mps 709 mmHg 95%
    08:00 +14°C° 1.1 mm 1 mps 709 mmHg 94%
    09:00 +14°C° 1.1 mm 1 mps 709 mmHg 93%
    10:00 +14°C° 1.1 mm 1 mps 709 mmHg 92%
    11:00 +14°C° 0.1 mm 1 mps 710 mmHg 92%
    12:00 +14°C° 0.1 mm 1 mps 710 mmHg 92%
    13:00 +14°C° 0.1 mm 1 mps 710 mmHg 92%
    14:00 +14°C° 0.5 mm 1 mps 711 mmHg 92%
    15:00 +14°C° 0.5 mm 1 mps 711 mmHg 92%
    16:00 +14°C° 0.5 mm 1 mps 711 mmHg 92%
    17:00 +14°C° 0.2 mm 1 mps 711 mmHg 92%
    18:00 +14°C° 0.2 mm 1 mps 712 mmHg 92%
    19:00 +14°C° 0.2 mm 1 mps 712 mmHg 91%
    20:00 +13°C° 0 mm 1 mps 713 mmHg 91%
    21:00 +12°C° 0 mm 1 mps 713 mmHg 91%
    22:00 +12°C° 0 mm 1 mps 714 mmHg 91%
    23:00 +11°C° 0 mm 1 mps 714 mmHg 89%

    Day after tomorrow, 6 June, Saturday

    Time Temperature Precipitation Wind Pressure Humidity
    00:00 +11°C° 0 mm 1 mps 714 mmHg 88%
    01:00 +11°C° 0 mm 1 mps 715 mmHg 87%
    02:00 +11°C° 0 mm 1 mps 715 mmHg 87%
    03:00 +10°C° 0 mm 1 mps 715 mmHg 87%
    04:00 +9°C° 0 mm 2 mps 715 mmHg 87%
    05:00 +12°C° 0 mm 2 mps 716 mmHg 82%
    06:00 +14°C° 0 mm 2 mps 716 mmHg 78%
    07:00 +16°C° 0 mm 3 mps 717 mmHg 74%
    08:00 +18°C° 0 mm 3 mps 717 mmHg 66%
    09:00 +19°C° 0 mm 4 mps 717 mmHg 58%
    10:00 +21°C° 0 mm 5 mps 717 mmHg 50%
    11:00 +21°C° 0 mm 5 mps 717 mmHg 50%
    12:00 +22°C° 0 mm 5 mps 717 mmHg 50%
    13:00 +23°C° 0 mm 5 mps 717 mmHg 50%
    14:00 +22°C° 0 mm 5 mps 717 mmHg 52%
    15:00 +22°C° 0 mm 4 mps 716 mmHg 55%
    16:00 +22°C° 0 mm 4 mps 716 mmHg 58%
    17:00 +21°C° 0.2 mm 3 mps 716 mmHg 66%
    18:00 +19°C° 0.2 mm 3 mps 716 mmHg 75%
    19:00 +18°C° 0.2 mm 2 mps 716 mmHg 83%
    20:00 +17°C° 0.1 mm 2 mps 716 mmHg 85%
    21:00 +16°C° 0.1 mm 1 mps 716 mmHg 87%
    22:00 +15°C° 0.1 mm 1 mps 716 mmHg 90%
    23:00 +15°C° 0.1 mm 1 mps 716 mmHg 91%

    7 June, Sunday

    Time Temperature Precipitation Wind Pressure Humidity
    00:00 +14°C° 0.1 mm 1 mps 716 mmHg 92%
    01:00 +14°C° 0.1 mm 1 mps 716 mmHg 93%
    02:00 +14°C° 0 mm 1 mps 716 mmHg 93%
    03:00 +13°C° 0 mm 1 mps 716 mmHg 94%
    04:00 +13°C° 0 mm 1 mps 716 mmHg 95%
    05:00 +14°C° 0 mm 1 mps 716 mmHg 92%
    06:00 +15°C° 0 mm 1 mps 717 mmHg 89%
    07:00 +17°C° 0 mm 2 mps 717 mmHg 86%
    08:00 +18°C° 0.1 mm 2 mps 717 mmHg 81%
    09:00 +19°C° 0.1 mm 2 mps 717 mmHg 76%
    10:00 +20°C° 0.1 mm 2 mps 717 mmHg 70%
    11:00 +20°C° 0.2 mm 2 mps 717 mmHg 71%
    12:00 +22°C° 0.2 mm 1 mps 717 mmHg 71%
    13:00 +22°C° 0.2 mm 1 mps 716 mmHg 71%
    14:00 +22°C° 0.9 mm 1 mps 716 mmHg 73%
    15:00 +22°C° 0.9 mm 1 mps 716 mmHg 74%
    16:00 +22°C° 0.9 mm 1 mps 716 mmHg 76%
    17:00 +21°C° 0.9 mm 1 mps 716 mmHg 80%
    18:00 +20°C° 0.9 mm 1 mps 716 mmHg 84%
    19:00 +19°C° 0.9 mm 1 mps 716 mmHg 88%
    20:00 +18°C° 0.5 mm 1 mps 716 mmHg 90%
    21:00 +18°C° 0.5 mm 1 mps 717 mmHg 91%
    22:00 +16°C° 0.5 mm 2 mps 717 mmHg 93%
    23:00 +14°C° 0.8 mm 3 mps 717 mmHg 92%

    8 June, Monday

    Time Temperature Precipitation Wind Pressure Humidity
    00:00 +13°C° 0.8 mm 4 mps 717 mmHg 91%
    01:00 +13°C° 0.8 mm 5 mps 717 mmHg 90%
    02:00 +12°C° 0.4 mm 5 mps 717 mmHg 90%
    03:00 +12°C° 0.4 mm 4 mps 718 mmHg 91%
    04:00 +11°C° 0.4 mm 4 mps 718 mmHg 91%
    05:00 +11°C° 0.9 mm 3 mps 718 mmHg 91%
    06:00 +11°C° 0.9 mm 3 mps 718 mmHg 92%
    07:00 +12°C° 0.9 mm 2 mps 719 mmHg 93%
    08:00 +12°C° 0.3 mm 2 mps 719 mmHg 92%
    09:00 +13°C° 0.3 mm 2 mps 719 mmHg 91%
    10:00 +13°C° 0.3 mm 2 mps 720 mmHg 90%
    11:00 +14°C° 0.2 mm 2 mps 720 mmHg 86%
    12:00 +15°C° 0.2 mm 2 mps 720 mmHg 83%
    13:00 +15°C° 0.2 mm 1 mps 720 mmHg 79%
    14:00 +16°C° 0 mm 1 mps 720 mmHg 77%
    15:00 +18°C° 0 mm 1 mps 720 mmHg 74%
    16:00 +19°C° 0 mm 1 mps 720 mmHg 71%
    17:00 +18°C° 0 mm 1 mps 720 mmHg 75%
    18:00 +16°C° 0 mm 1 mps 720 mmHg 79%
    19:00 +15°C° 0 mm 1 mps 720 mmHg 82%
    20:00 +15°C° 0 mm 1 mps 720 mmHg 84%
    21:00 +14°C° 0 mm 1 mps 720 mmHg 86%
    22:00 +13°C° 0 mm 1 mps 720 mmHg 88%
    23:00 +12°C° 0 mm 1 mps 720 mmHg 89%

    9 June, Tuesday

    Time Temperature Precipitation Wind Pressure Humidity
    00:00 +12°C° 0 mm 1 mps 720 mmHg 91%
    01:00 +11°C° 0 mm 1 mps 721 mmHg 92%
    02:00 +11°C° 0 mm 1 mps 720 mmHg 92%
    03:00 +11°C° 0 mm 1 mps 720 mmHg 93%
    04:00 +11°C° 0 mm 1 mps 720 mmHg 93%
    05:00 +12°C° 0 mm 1 mps 720 mmHg 88%
    06:00 +14°C° 0 mm 1 mps 721 mmHg 83%
    07:00 +15°C° 0 mm 2 mps 721 mmHg 78%
    08:00 +16°C° 0 mm 2 mps 721 mmHg 71%
    09:00 +18°C° 0 mm 2 mps 722 mmHg 64%
    10:00 +19°C° 0 mm 2 mps 722 mmHg 58%
    11:00 +19°C° 0.1 mm 2 mps 722 mmHg 59%
    12:00 +19°C° 0.1 mm 2 mps 722 mmHg 61%
    13:00 +20°C° 0.1 mm 1 mps 722 mmHg 62%
    14:00 +20°C° 0.1 mm 1 mps 721 mmHg 63%
    15:00 +20°C° 0.1 mm 1 mps 721 mmHg 64%
    16:00 +20°C° 0.1 mm 1 mps 721 mmHg 65%
    17:00 +19°C° 0 mm 1 mps 721 mmHg 71%
    18:00 +18°C° 0 mm 1 mps 721 mmHg 77%
    19:00 +16°C° 0 mm 1 mps 720 mmHg 82%
    20:00 +16°C° 0 mm 1 mps 721 mmHg 84%
    21:00 +15°C° 0 mm 1 mps 721 mmHg 85%
    22:00 +14°C° 0 mm 1 mps 721 mmHg 86%
    23:00 +14°C° 0 mm 1 mps 721 mmHg 86%
    Show more